EW6378 Weather Reports


Display with metric or nautical units.
time (UTC)temp
F
wind
direction
speed
MPH
gust
MPH
rain 1hr
in
rain 24hr
in
rain mn
in
humidity
%
barometer
mb
20260510174610 81 0 0.0 0.0 0.00 0.01 0.00 42 1012.9
20260510174058 81 0 0.0 1.0 0.00 0.01 0.00 43 1013.1
20260510173558 82 0 0.0 1.0 0.00 0.01 0.00 41 1013.1
20260510173107 82 0 0.0 1.0 0.00 0.01 0.00 42 1013.0
20260510172558 81 0 0.0 0.0 0.00 0.01 0.00 43 1013.0
20260510172058 81 0 0.0 0.0 0.00 0.01 0.00 43 1013.0
20260510171603 81 0 0.0 2.0 0.00 0.01 0.00 41 1013.0
20260510171059 81 0 0.0 2.0 0.00 0.01 0.00 45 1013.0
20260510170558 80 0 0.0 1.0 0.00 0.01 0.00 45 1013.1
20260510170056 80 0 0.0 2.0 0.00 0.01 0.00 46 1013.1
20260510165558 79 0 0.0 2.0 0.00 0.01 0.00 44 1013.2
20260510165058 79 0 0.0 2.0 0.00 0.01 0.00 48 1013.3
20260510164606 79 149 0.0 1.0 0.00 0.01 0.00 48 1013.3
20260510164058 79 0 0.0 0.0 0.00 0.01 0.00 48 1013.1
20260510163558 78 0 0.0 0.0 0.00 0.01 0.00 48 1013.3
20260510163100 79 0 0.0 0.0 0.00 0.01 0.00 47 1013.3
20260510162559 78 0 0.0 0.0 0.00 0.01 0.00 50 1013.4
20260510162057 78 0 0.0 0.0 0.00 0.01 0.00 49 1013.4
20260510161600 79 0 0.0 0.0 0.00 0.01 0.00 48 1013.5
20260510161058 79 0 0.0 0.0 0.00 0.01 0.00 49 1013.4
20260510160557 78 0 0.0 0.0 0.00 0.01 0.00 49 1013.4
20260510160059 78 0 0.0 0.0 0.00 0.01 0.00 51 1013.5
20260510155558 77 0 0.0 0.0 0.00 0.01 0.00 50 1013.5
20260510155058 77 0 0.0 0.0 0.00 0.01 0.00 50 1013.5
20260510154601 77 0 0.0 0.0 0.00 0.01 0.00 53 1013.5
20260510154057 77 0 0.0 0.0 0.00 0.01 0.00 52 1013.6
20260510153558 76 0 0.0 0.0 0.00 0.01 0.00 53 1013.4
20260510153101 76 0 0.0 1.0 0.00 0.01 0.00 53 1013.5
20260510152558 76 0 0.0 1.0 0.00 0.01 0.00 52 1013.5
20260510152058 75 0 0.0 0.0 0.00 0.01 0.00 55 1013.6
20260510151603 75 0 0.0 0.0 0.00 0.01 0.00 55 1013.5
20260510151058 75 0 0.0 0.0 0.00 0.01 0.00 56 1013.5
20260510150558 74 0 0.0 1.0 0.00 0.01 0.00 57 1013.4
20260510150108 74 0 0.0 1.0 0.00 0.01 0.00 56 1013.4
20260510145557 74 0 0.0 0.0 0.00 0.01 0.00 57 1013.5
20260510145057 74 0 0.0 0.0 0.00 0.01 0.00 58 1013.3
20260510144609 73 0 0.0 0.0 0.00 0.01 0.00 58 1013.3
20260510144058 73 0 0.0 0.0 0.00 0.01 0.00 57 1013.2
20260510143557 73 0 0.0 0.0 0.00 0.01 0.00 56 1013.2
20260510143109 72 0 0.0 0.0 0.00 0.01 0.00 56 1013.1
20260510142557 72 0 0.0 0.0 0.00 0.01 0.00 56 1013.1
20260510142058 71 0 0.0 0.0 0.00 0.01 0.00 55 1013.1
20260510141556 71 0 0.0 0.0 0.00 0.01 0.00 49 1013.1
20260510141058 71 0 0.0 0.0 0.00 0.01 0.00 46 1013.3
20260510140558 70 0 0.0 0.0 0.00 0.01 0.00 48 1013.3
20260510140056 70 0 0.0 0.0 0.00 0.01 0.00 46 1013.4
20260510135557 69 0 0.0 0.0 0.00 0.01 0.00 49 1013.3
20260510135059 69 0 0.0 0.0 0.00 0.01 0.00 42 1013.4
20260510134606 68 0 0.0 0.0 0.00 0.01 0.00 29 1013.4
20260510134056 68 0 0.0 0.0 0.00 0.01 0.00 29 1013.3
20260510133557 68 0 0.0 0.0 0.00 0.01 0.00 26 1013.3
20260510133058 67 0 0.0 0.0 0.00 0.01 0.00 5 1013.2
20260510132557 67 0 0.0 0.0 0.00 0.01 0.00 100 1013.4
20260510132059 66 0 0.0 0.0 0.00 0.01 0.00 100 1013.2
20260510131558 65 0 0.0 0.0 0.00 0.01 0.00 100 1013.3
20260510131057 64 0 0.0 0.0 0.00 0.01 0.00 100 1013.3
20260510130557 63 0 0.0 0.0 0.00 0.01 0.00 100 1013.5
20260510130117 63 0 0.0 0.0 0.00 0.01 0.00 100 1013.5
20260510125556 62 0 0.0 0.0 0.00 0.01 0.00 100 1013.6
20260510125058 61 0 0.0 0.0 0.00 0.01 0.00 100 1013.7
20260510124603 60 0 0.0 0.0 0.00 0.01 0.00 100 1013.6
20260510124058 60 0 0.0 0.0 0.00 0.01 0.00 100 1013.7
20260510123558 60 0 0.0 0.0 0.00 0.01 0.00 100 1013.6
20260510123100 59 0 0.0 0.0 0.00 0.01 0.00 100 1013.7
20260510122558 58 0 0.0 0.0 0.00 0.01 0.00 100 1013.7
20260510122057 58 0 0.0 0.0 0.00 0.01 0.00 100 1013.7
20260510121557 58 0 0.0 0.0 0.00 0.01 0.00 100 1013.6
20260510121058 58 0 0.0 0.0 0.00 0.01 0.00 100 1013.6
20260510120558 57 0 0.0 0.0 0.00 0.01 0.00 100 1013.5
20260510120057 56 0 0.0 0.0 0.00 0.01 0.00 100 1013.4
20260510115557 56 0 0.0 0.0 0.00 0.01 0.00 100 1013.5
20260510115057 55 0 0.0 0.0 0.00 0.01 0.00 100 1013.4
20260510114557 54 0 0.0 0.0 0.00 0.01 0.00 100 1013.4
20260510114057 53 0 0.0 0.0 0.00 0.01 0.00 100 1013.4
20260510113557 53 0 0.0 0.0 0.00 0.01 0.00 100 1013.2
20260510113107 52 0 0.0 0.0 0.00 0.01 0.00 100 1013.0
20260510112559 51 0 0.0 0.0 0.00 0.01 0.00 100 1013.0
20260510112058 51 0 0.0 0.0 0.00 0.01 0.00 100 1012.9
20260510111555 51 0 0.0 0.0 0.00 0.01 0.00 100 1012.9
20260510111057 50 0 0.0 0.0 0.00 0.01 0.00 100 1012.7
20260510110600 50 0 0.0 0.0 0.00 0.01 0.00 100 1012.9
20260510110059 50 0 0.0 0.0 0.00 0.01 0.00 100 1012.8
20260510105559 50 0 0.0 0.0 0.00 0.01 0.00 100 1012.7
20260510105059 49 0 0.0 0.0 0.00 0.01 0.00 100 1012.6
20260510104558 49 0 0.0 0.0 0.00 0.01 0.00 100 1012.4
20260510104057 49 0 0.0 0.0 0.00 0.01 0.00 100 1012.3
20260510103559 49 0 0.0 0.0 0.00 0.01 0.00 100 1012.1
20260510103056 49 0 0.0 0.0 0.00 0.01 0.00 100 1012.0
20260510102557 49 0 0.0 0.0 0.00 0.01 0.00 100 1011.9
20260510102058 49 0 0.0 0.0 0.00 0.01 0.00 100 1011.9
20260510101600 49 0 0.0 0.0 0.00 0.01 0.00 100 1011.9
20260510101057 49 0 0.0 0.0 0.00 0.01 0.00 100 1011.8
20260510100557 50 0 0.0 0.0 0.00 0.01 0.00 100 1011.7
20260510100104 50 0 0.0 0.0 0.00 0.01 0.00 100 1011.8
20260510095600 50 0 0.0 0.0 0.00 0.01 0.00 100 1011.9
20260510095058 50 0 0.0 0.0 0.00 0.01 0.00 100 1011.8
20260510094556 50 0 0.0 0.0 0.00 0.01 0.00 100 1011.9
20260510094057 50 0 0.0 0.0 0.00 0.01 0.00 100 1012.0
20260510093558 50 0 0.0 0.0 0.00 0.01 0.00 100 1012.1
20260510093100 50 0 0.0 0.0 0.00 0.01 0.00 100 1011.9
20260510092601 50 0 0.0 0.0 0.00 0.01 0.00 100 1011.9
20260510092100 50 0 0.0 0.0 0.00 0.01 0.00 100 1011.8
20260510091600 50 0 0.0 0.0 0.00 0.01 0.00 100 1011.8
20260510091057 50 0 0.0 0.0 0.00 0.01 0.00 100 1011.8
20260510090558 50 0 0.0 0.0 0.00 0.01 0.00 100 1011.8
20260510090110 50 0 0.0 0.0 0.00 0.01 0.00 100 1011.7
20260510085559 50 0 0.0 0.0 0.00 0.01 0.00 100 1011.7
20260510085059 51 0 0.0 0.0 0.00 0.01 0.00 100 1011.7
20260510084604 51 0 0.0 0.0 0.00 0.01 0.00 100 1011.7
20260510084057 51 0 0.0 0.0 0.00 0.01 0.00 100 1011.4
20260510083556 51 0 0.0 0.0 0.00 0.01 0.00 100 1011.4
20260510083059 51 0 0.0 0.0 0.00 0.01 0.00 100 1011.4
20260510082556 51 0 0.0 0.0 0.00 0.01 0.00 100 1011.3
20260510082057 51 0 0.0 0.0 0.00 0.01 0.00 100 1011.3
20260510081557 51 0 0.0 0.0 0.00 0.01 0.00 100 1011.2
20260510081058 51 0 0.0 0.0 0.00 0.01 0.00 100 1011.1
20260510080556 51 0 0.0 0.0 0.00 0.01 0.00 100 1011.1
20260510080103 50 0 0.0 0.0 0.00 0.01 0.00 100 1011.0
20260510075601 51 0 0.0 0.0 0.00 0.01 0.00 100 1010.9
20260510075057 51 0 0.0 0.0 0.00 0.01 0.00 100 1010.8
20260510074558 51 0 0.0 0.0 0.00 0.01 0.00 100 1010.7
20260510074057 51 0 0.0 0.0 0.00 0.01 0.00 100 1010.7
20260510073557 51 0 0.0 0.0 0.00 0.01 0.00 100 1010.7
20260510073115 51 0 0.0 0.0 0.00 0.01 0.00 100 1010.7
20260510072557 51 0 0.0 0.0 0.00 0.01 0.00 100 1010.7
20260510072056 51 0 0.0 0.0 0.00 0.01 0.00 100 1010.7
20260510071558 51 0 0.0 0.0 0.00 0.01 0.00 100 1010.7
20260510071057 52 0 0.0 0.0 0.00 0.01 0.00 100 1010.7
20260510070557 52 0 0.0 0.0 0.00 0.01 0.00 100 1010.7
20260510065557 52 0 0.0 0.0 0.00 0.01 0.00 100 1010.5
20260510065057 52 0 0.0 0.0 0.00 0.01 0.00 100 1010.3
20260510064634 52 0 0.0 0.0 0.00 0.01 0.00 100 1010.3
20260510064057 52 0 0.0 0.0 0.00 0.01 0.00 100 1010.4
20260510063558 52 0 0.0 0.0 0.00 0.01 0.00 100 1010.3
20260510063056 52 0 0.0 0.0 0.00 0.01 0.00 100 1010.4
20260510062557 52 0 0.0 0.0 0.00 0.01 0.00 100 1010.3
20260510062054 53 0 0.0 0.0 0.00 0.01 0.00 100 1010.4
20260510061558 53 0 0.0 0.0 0.00 0.01 0.00 100 1010.4
20260510061057 53 0 0.0 0.0 0.00 0.01 0.00 100 1010.5
20260510060602 53 0 0.0 0.0 0.00 0.01 0.00 100 1010.4
20260510060058 53 0 0.0 0.0 0.00 0.01 0.00 100 1010.5
20260510055557 53 0 0.0 0.0 0.00 0.01 0.00 100 1010.5
20260510055057 53 0 0.0 0.0 0.00 0.01 0.00 100 1010.6
20260510054601 53 0 0.0 0.0 0.00 0.01 0.00 100 1010.6
20260510054057 53 0 0.0 0.0 0.00 0.01 0.00 100 1010.7
20260510053557 53 0 0.0 0.0 0.00 0.01 0.00 100 1010.7
20260510053058 53 0 0.0 0.0 0.00 0.01 0.00 100 1010.6
20260510052557 54 0 0.0 0.0 0.00 0.01 0.00 100 1010.5
20260510052058 54 0 0.0 0.0 0.00 0.01 0.00 100 1010.6
20260510051558 54 0 0.0 0.0 0.00 0.01 0.00 100 1010.6
20260510051056 54 0 0.0 0.0 0.00 0.01 0.00 100 1010.6
20260510050557 54 0 0.0 0.0 0.00 0.01 0.00 100 1010.6
20260510050058 54 0 0.0 0.0 0.00 0.01 0.00 100 1010.7
20260510045601 54 0 0.0 0.0 0.00 0.01 0.00 100 1010.8
20260510045056 55 0 0.0 0.0 0.00 0.01 0.00 100 1010.7
20260510044557 55 0 0.0 0.0 0.00 0.01 0.00 100 1010.7
20260510044057 55 0 0.0 0.0 0.00 0.01 0.00 100 1010.7
20260510043555 55 0 0.0 0.0 0.00 0.01 0.00 100 1010.8
20260510043058 55 0 0.0 0.0 0.00 0.01 0.00 100 1010.8
20260510042559 55 0 0.0 0.0 0.00 0.01 0.00 100 1010.7
20260510042057 55 0 0.0 0.0 0.00 0.01 0.00 100 1010.7
20260510041558 55 0 0.0 0.0 0.00 0.01 0.00 100 1010.7
20260510041055 56 0 0.0 0.0 0.00 0.01 0.00 100 1010.5
20260510040557 56 0 0.0 0.0 0.00 0.01 0.00 100 1010.6
20260510040101 56 0 0.0 0.0 0.00 0.01 0.00 100 1010.6
20260510035556 56 0 0.0 0.0 0.00 0.01 0.01 100 1010.5
20260510035056 56 0 0.0 0.0 0.00 0.01 0.01 100 1010.6
20260510034616 56 0 0.0 0.0 0.00 0.01 0.01 100 1010.6
20260510034056 56 0 0.0 0.0 0.00 0.01 0.01 100 1010.6
20260510033558 57 0 0.0 0.0 0.00 0.01 0.01 100 1010.6
20260510033105 57 0 0.0 0.0 0.00 0.01 0.01 100 1010.4
20260510032557 57 0 0.0 0.0 0.00 0.01 0.01 100 1010.5
20260510032057 57 0 0.0 0.0 0.00 0.01 0.01 100 1010.6
20260510031558 58 0 0.0 0.0 0.00 0.01 0.01 100 1010.5
20260510031057 58 0 0.0 0.0 0.00 0.01 0.01 100 1010.3
20260510030556 58 0 0.0 0.0 0.00 0.01 0.01 100 1010.4
20260510030059 58 0 0.0 0.0 0.00 0.01 0.01 100 1010.3
20260510025557 59 0 0.0 0.0 0.00 0.01 0.01 100 1010.2
20260510025057 59 0 0.0 0.0 0.00 0.01 0.01 100 1010.2
20260510024558 59 0 0.0 0.0 0.00 0.01 0.01 2 1010.3
20260510024058 60 0 0.0 0.0 0.00 0.01 0.01 7 1010.2
20260510023557 60 0 0.0 0.0 0.00 0.01 0.01 8 1010.2
20260510023057 60 0 0.0 0.0 0.00 0.01 0.01 10 1010.2
20260510022603 60 0 0.0 0.0 0.00 0.01 0.01 10 1010.2
20260510022055 60 0 0.0 0.0 0.00 0.01 0.01 12 1010.2
20260510021604 61 0 0.0 0.0 0.00 0.01 0.01 14 1010.2
20260510021058 61 0 0.0 0.0 0.00 0.01 0.01 13 1010.2
20260510020556 61 0 0.0 0.0 0.00 0.01 0.01 12 1010.2
20260510020058 61 0 0.0 0.0 0.00 0.01 0.01 10 1010.2
20260510015554 61 0 0.0 0.0 0.00 0.01 0.01 8 1010.1
20260510015054 61 0 0.0 0.0 0.00 0.01 0.01 6 1010.1
20260510014602 61 0 0.0 0.0 0.00 0.01 0.01 8 1010.0
20260510014057 61 0 0.0 0.0 0.00 0.01 0.01 9 1010.0
20260510013600 61 0 0.0 0.0 0.00 0.01 0.01 13 1010.0
20260510013117 62 0 0.0 0.0 0.00 0.01 0.01 15 1010.0
20260510012555 62 0 0.0 0.0 0.00 0.01 0.01 19 1009.9
20260510012057 62 0 0.0 0.0 0.00 0.01 0.01 23 1009.9
20260510011558 62 0 0.0 0.0 0.00 0.01 0.01 25 1009.8
20260510011056 62 0 0.0 0.0 0.00 0.01 0.01 26 1009.7
20260510010556 62 0 0.0 0.0 0.00 0.01 0.01 31 1009.7
20260510010056 62 0 0.0 0.0 0.00 0.01 0.01 36 1009.7
20260510005557 63 0 0.0 0.0 0.00 0.01 0.01 37 1009.6
20260510005054 63 0 0.0 0.0 0.00 0.01 0.01 42 1009.6
20260510004559 63 0 0.0 0.0 0.00 0.01 0.01 46 1009.6
20260510004057 64 0 0.0 0.0 0.00 0.01 0.01 48 1009.6
20260510003559 64 0 0.0 0.0 0.00 0.01 0.01 49 1009.4
20260510003106 64 0 0.0 0.0 0.00 0.01 0.01 52 1009.4
20260510002601 65 0 0.0 0.0 0.00 0.01 0.01 53 1009.4
20260510002100 65 0 0.0 0.0 0.00 0.01 0.01 53 1009.4
20260510001555 65 0 0.0 0.0 0.00 0.01 0.01 56 1009.4
20260510001058 66 0 0.0 0.0 0.00 0.01 0.01 58 1009.4
20260510000558 66 0 0.0 0.0 0.00 0.01 0.01 59 1009.3
20260510000125 66 0 0.0 1.0 0.00 0.01 0.01 60 1009.3
20260509235558 67 0 0.0 1.0 0.00 0.01 0.01 61 1009.2
20260509235058 67 0 0.0 1.0 0.00 0.01 0.01 61 1009.2
20260509234557 68 0 0.0 0.0 0.00 0.01 0.01 61 1009.0
20260509234058 68 0 0.0 0.0 0.00 0.01 0.01 61 1008.9
20260509233558 68 0 0.0 0.0 0.00 0.01 0.01 61 1009.0
20260509233058 68 0 0.0 0.0 0.00 0.01 0.01 61 1008.9
20260509232559 68 0 0.0 0.0 0.00 0.01 0.01 61 1008.9
20260509232059 68 0 0.0 0.0 0.00 0.01 0.01 61 1008.9
20260509231608 69 0 0.0 0.0 0.00 0.01 0.01 61 1008.8
20260509231057 69 0 0.0 0.0 0.00 0.01 0.01 61 1008.8
20260509230557 69 0 0.0 0.0 0.00 0.01 0.01 62 1008.9
20260509230105 69 0 0.0 0.0 0.00 0.01 0.01 62 1008.8
20260509225559 69 0 0.0 0.0 0.00 0.01 0.01 61 1008.8
20260509225057 69 0 0.0 0.0 0.00 0.01 0.01 61 1008.7
20260509224557 69 0 0.0 0.0 0.00 0.01 0.01 61 1008.8
20260509224057 70 0 0.0 0.0 0.00 0.01 0.01 61 1008.9
20260509223557 70 0 0.0 0.0 0.00 0.01 0.01 61 1008.9
20260509223105 70 0 0.0 0.0 0.00 0.01 0.01 61 1008.8
20260509222557 70 0 0.0 0.0 0.00 0.01 0.01 61 1008.9
20260509222057 70 0 0.0 0.0 0.00 0.01 0.01 61 1008.8
20260509221627 70 0 0.0 0.0 0.00 0.01 0.01 60 1008.7
20260509221057 71 0 0.0 0.0 0.00 0.01 0.01 60 1008.9
20260509220557 71 0 0.0 0.0 0.00 0.01 0.01 60 1008.7
20260509215558 71 0 0.0 0.0 0.00 0.01 0.01 60 1008.8
20260509215100 71 0 0.0 0.0 0.00 0.01 0.01 60 1009.0
20260509214604 71 0 0.0 0.0 0.00 0.01 0.01 60 1009.0
20260509214058 71 0 0.0 0.0 0.00 0.01 0.01 60 1009.1
20260509213557 71 0 0.0 0.0 0.00 0.01 0.01 60 1009.0
20260509213101 71 0 0.0 0.0 0.00 0.01 0.01 61 1009.0
20260509212559 71 0 0.0 0.0 0.00 0.01 0.01 60 1009.0
20260509212057 70 0 0.0 0.0 0.00 0.01 0.01 60 1008.9
20260509211602 70 0 0.0 1.0 0.00 0.01 0.01 61 1009.0
20260509211057 70 0 0.0 1.0 0.00 0.01 0.01 60 1008.9
20260509210557 70 0 0.0 1.0 0.00 0.01 0.01 60 1008.9
20260509210100 70 0 0.0 1.0 0.00 0.01 0.01 60 1008.9
20260509205556 70 0 0.0 1.0 0.00 0.01 0.01 60 1008.8
20260509205058 69 0 0.0 1.0 0.00 0.01 0.01 60 1008.9
20260509204555 69 0 0.0 0.0 0.00 0.01 0.01 60 1008.7
20260509204057 69 0 0.0 1.0 0.00 0.01 0.01 59 1008.7
20260509203601 68 0 0.0 1.0 0.00 0.01 0.01 59 1008.6
20260509203056 68 0 0.0 1.0 0.00 0.01 0.01 59 1008.7
20260509202557 68 0 0.0 1.0 0.00 0.01 0.01 58 1008.9
20260509202055 68 0 0.0 1.0 0.00 0.01 0.01 58 1008.9
20260509201558 67 0 0.0 1.0 0.00 0.01 0.01 58 1009.1
20260509201102 67 0 0.0 1.0 0.00 0.01 0.01 59 1009.1
20260509200556 67 0 0.0 1.0 0.00 0.01 0.01 59 1009.2
20260509200109 67 0 0.0 1.0 0.00 0.01 0.01 56 1009.3
20260509195600 67 0 0.0 1.0 0.01 0.01 0.01 49 1009.3
20260509195056 67 0 0.0 1.0 0.01 0.01 0.01 48 1009.4
20260509194558 66 0 0.0 1.0 0.01 0.01 0.01 45 1009.4
20260509194054 66 0 0.0 1.0 0.01 0.01 0.01 42 1009.6
20260509193557 66 0 0.0 1.0 0.01 0.01 0.01 41 1009.6
20260509193058 66 0 0.0 1.0 0.01 0.01 0.01 28 1009.7
20260509192556 66 0 0.0 0.0 0.01 0.01 0.01 24 1009.7
20260509192100 66 0 0.0 0.0 0.01 0.01 0.01 16 1009.8
20260509191601 65 0 0.0 0.0 0.01 0.01 0.01 24 1009.7
20260509191057 65 0 0.0 0.0 0.01 0.01 0.01 22 1009.8
20260509190556 65 0 0.0 0.0 0.01 0.01 0.01 14 1009.8
20260509190100 65 0 0.0 0.0 0.01 0.01 0.01 28 1009.8
20260509185556 65 0 0.0 0.0 0.00 0.00 0.00 39 1010.0
20260509185058 66 0 0.0 0.0 0.00 0.00 0.00 47 1010.1
20260509184556 66 0 0.0 0.0 0.00 0.00 0.00 51 1010.1
20260509184057 66 0 0.0 0.0 0.00 0.00 0.00 52 1010.0
20260509183557 66 0 0.0 0.0 0.00 0.00 0.00 53 1010.0
20260509183105 66 0 0.0 0.0 0.00 0.00 0.00 56 1010.1
20260509182557 66 0 0.0 0.0 0.00 0.00 0.00 53 1010.1
20260509182057 66 0 0.0 0.0 0.00 0.00 0.00 53 1010.2
20260509181558 65 0 0.0 0.0 0.00 0.00 0.00 52 1010.4
20260509181057 65 0 0.0 0.0 0.00 0.00 0.00 54 1010.6
20260509180557 65 0 0.0 0.0 0.00 0.00 0.00 55 1010.6
20260509180103 65 0 0.0 0.0 0.00 0.00 0.00 55 1010.7
20260509175558 65 0 0.0 0.0 0.00 0.00 0.00 53 1010.6
20260509175058 65 0 0.0 0.0 0.00 0.00 0.00 54 1010.6